Location: Binningen
(47.7924°N, 8.7261°E)
Time: 18:42:46
(UTC+00:00)

Cosmos 1805 - Pass Details

Date: 17 May 2021
Orbit: 523 x 531 km, 82.5° (Epoch: 21 June)

Event Time Altitude Azimuth Distance (km) Brightness Sun altitude
Rises 23:00:43 0° 350° (N) 2,676 8.3 -22.5°
Reaches altitude 10° 23:02:53 10° 349° (N) 1,780 7.0 -22.5°
Enters shadow 23:06:41 82° 303° (WNW) 537 3.2 -22.6°
